This is the latest recevied weather packets stored in our database for station/object N7AWM. If no packets are shown the sender has not sent any weather packets the latest 10 day(s).
| Time | Temp. | Humidity | Pressure | Rain* | Wind** | Luminosity | Snow |
|---|---|---|---|---|---|---|---|
| 1788614858 | 10° C | 83% | 1015.1 hPa | 0.25 mm | - | - | - |
| 1788614018 | 10.56° C | 79% | 1015 hPa | 0 mm | - | - | - |
| 1788613178 | 11.11° C | 77% | 1014.7 hPa | 0 mm | - | - | - |
| 1788612338 | 10.56° C | 80% | 1014.6 hPa | 0 mm | - | - | - |
| 1788611498 | 10° C | 82% | 1014.6 hPa | 0 mm | - | - | - |
| 1788610658 | 10° C | 84% | 1014.7 hPa | 0 mm | - | - | - |
| 1788609818 | 10° C | 84% | 1014.7 hPa | 0 mm | - | - | - |
| 1788608978 | 10° C | 81% | 1014.6 hPa | 0 mm | - | - | - |
| 1788608138 | 10.56° C | 80% | 1014.5 hPa | 0 mm | - | - | - |
| 1788607298 | 10.56° C | 79% | 1014.2 hPa | 0 mm | - | - | - |
| 1788606458 | 10.56° C | 77% | 1014.1 hPa | 0 mm | - | - | - |
| 1788605618 | 10.56° C | 79% | 1014.2 hPa | 0 mm | - | - | - |
| 1788604778 | 10.56° C | 80% | 1014.3 hPa | 0 mm | - | - | - |
| 1788603938 | 10.56° C | 80% | 1014.2 hPa | 0 mm | - | - | - |
| 1788603098 | 11.11° C | 77% | 1014.1 hPa | 0 mm | - | - | - |
| 1788602259 | 10.56° C | 78% | 1014.2 hPa | 0 mm | - | - | - |
| 1788601419 | 10.56° C | 79% | 1014.3 hPa | 0 mm | - | - | - |
| 1788600579 | 10.56° C | 75% | 1014.2 hPa | 0 mm | - | - | - |
| 1788599771 | 10.56° C | 75% | 1014.2 hPa | 0 mm | - | - | - |
| 1788598899 | 10° C | 74% | 1014.1 hPa | 0 mm | - | - | - |
| 1788598076 | 9.44° C | 80% | 1014.1 hPa | 0 mm | - | - | - |
| 1788597219 | 10° C | 80% | 1013.9 hPa | 0 mm | - | - | - |
| 1788596379 | 10.56° C | 76% | 1013.9 hPa | 0 mm | - | - | - |
| 1788595539 | 11.11° C | 76% | 1013.8 hPa | 0 mm | - | - | - |
| 1788594699 | 10.56° C | 75% | 1013.7 hPa | 0 mm | - | - | - |
* Rain latest hour (hover to see other rain measurements)
** Current wind speed in m/s (hover to see current wind gust speed)